Starlink 3147

operational
NORAD ID: 49410 Int'l Des: 2021-104 Owner: SPXS Country: US Constellation: starlink
LEOCIRCULAR

About Starlink 3147

Description loading...

Live Position

Loading 3D Globe...

Upcoming Passes

Altitude History

Altitude vs Time

uPlot chart will show altitude changes over time

Two-Line Element Set

1 49410U 21104C 26034.34164601 -.00002018 00000-0 -10869-3 0 9996
2 49410 53.2186 23.3223 0001495 94.5629 265.5534 15.08844962233447
Epoch: Feb 3, 2026 • Age: 18 hours

Current Status

Altitude 539.9 km
Velocity 7.60 km/s
Sub-Earth Point 23.52°N, 11.53°E
Launch Date Nov 13, 2021
Age 4.2 years
Type internet

Technical Details

Classification Payload
Mass 290.00 kg
Dry Mass 270.00 kg
Total Mass 290.00 kg
Length 0.20 m
Diameter 2.80 m
Span 9.00 m
Shape Box + pan
Manufacturer SPXS
Bus Type Starlink
Phase Status In Orbit
Owner/State SPXS/US

Large Constellations

Loading constellations...